| time (UTC) | temp C | wind direction | speed KPH | gust KPH | rain 1hr cm | rain 24hr cm | rain mn cm | humidity % | barometer mb |
| 20260508182748 | 16 | 2 | 8.0 | 16.1 | 0.00 | 0.00 | 0.00 | 43 | 981.1 |
| 20260508182249 | 16 | 352 | 4.8 | 14.5 | 0.00 | 0.00 | 0.00 | 43 | 980.9 |
| 20260508181749 | 16 | 304 | 4.8 | 14.5 | 0.00 | 0.00 | 0.00 | 39 | 981.1 |
| 20260508181253 | 17 | 333 | 0.0 | 9.7 | 0.00 | 0.00 | 0.00 | 40 | 981.2 |
| 20260508181249 | 16 | 312 | 4.8 | 14.5 | 0.00 | 0.00 | 0.00 | 39 | 981.2 |
| 20260508180248 | 17 | 60 | 1.6 | 6.4 | 0.00 | 0.00 | 0.00 | 45 | 981.3 |
| 20260508175749 | 16 | 172 | 1.6 | 6.4 | 0.00 | 0.00 | 0.00 | 43 | 981.3 |
| 20260508175249 | 16 | 157 | 0.0 | 6.4 | 0.00 | 0.00 | 0.00 | 43 | 981.4 |
| 20260508174749 | 16 | 139 | 0.0 | 4.8 | 0.00 | 0.00 | 0.00 | 44 | 981.4 |
| 20260508174248 | 16 | 211 | 0.0 | 4.8 | 0.00 | 0.00 | 0.00 | 44 | 981.4 |
| 20260508173748 | 16 | 326 | 0.0 | 4.8 | 0.00 | 0.00 | 0.00 | 42 | 981.5 |
| 20260508173248 | 16 | 153 | 0.0 | 8.0 | 0.00 | 0.00 | 0.00 | 46 | 981.5 |
| 20260508172750 | 15 | 149 | 1.6 | 8.0 | 0.00 | 0.00 | 0.00 | 47 | 981.7 |
| 20260508172253 | 15 | 346 | 0.0 | 4.8 | 0.00 | 0.00 | 0.00 | 48 | 981.5 |
| 20260508172249 | 15 | 254 | 1.6 | 6.4 | 0.00 | 0.00 | 0.00 | 46 | 981.5 |
| 20260508171249 | 15 | 214 | 0.0 | 4.8 | 0.00 | 0.00 | 0.00 | 47 | 981.7 |
| 20260508170748 | 14 | 287 | 0.0 | 3.2 | 0.00 | 0.00 | 0.00 | 52 | 981.7 |
| 20260508170253 | 13 | 327 | 1.6 | 8.0 | 0.00 | 0.00 | 0.00 | 53 | 981.8 |
| 20260508170249 | 13 | 28 | 1.6 | 6.4 | 0.00 | 0.00 | 0.00 | 52 | 981.8 |
| 20260508165249 | 13 | 268 | 1.6 | 8.0 | 0.00 | 0.00 | 0.00 | 51 | 981.8 |
| 20260508164749 | 13 | 29 | 0.0 | 6.4 | 0.00 | 0.00 | 0.00 | 51 | 981.9 |
| 20260508164249 | 13 | 198 | 0.0 | 4.8 | 0.00 | 0.00 | 0.00 | 54 | 981.9 |
| 20260508163749 | 13 | 304 | 0.0 | 4.8 | 0.00 | 0.00 | 0.00 | 50 | 982.0 |
| 20260508163249 | 13 | 175 | 0.0 | 3.2 | 0.00 | 0.00 | 0.00 | 49 | 982.0 |
| 20260508162749 | 13 | 120 | 1.6 | 9.7 | 0.00 | 0.00 | 0.00 | 54 | 982.0 |
| 20260508162249 | 12 | 353 | 1.6 | 9.7 | 0.00 | 0.03 | 0.00 | 55 | 982.1 |
| 20260508161748 | 12 | 340 | 1.6 | 6.4 | 0.00 | 0.03 | 0.00 | 58 | 982.0 |
| 20260508161249 | 12 | 322 | 1.6 | 6.4 | 0.00 | 0.03 | 0.00 | 56 | 982.0 |
| 20260508160749 | 12 | 203 | 1.6 | 6.4 | 0.00 | 0.05 | 0.00 | 59 | 982.1 |
| 20260508160253 | 11 | 189 | 1.6 | 6.4 | 0.00 | 0.05 | 0.00 | 60 | 982.1 |
| 20260508160248 | 11 | 285 | 1.6 | 6.4 | 0.00 | 0.05 | 0.00 | 61 | 982.1 |
| 20260508155248 | 11 | 304 | 1.6 | 6.4 | 0.00 | 0.08 | 0.00 | 60 | 982.1 |
| 20260508154749 | 11 | 219 | 1.6 | 8.0 | 0.00 | 0.08 | 0.00 | 63 | 982.2 |
| 20260508154253 | 10 | 185 | 1.6 | 4.8 | 0.00 | 0.08 | 0.00 | 67 | 982.2 |
| 20260508154248 | 11 | 181 | 1.6 | 8.0 | 0.00 | 0.08 | 0.00 | 65 | 982.2 |
| 20260508153248 | 10 | 294 | 0.0 | 4.8 | 0.00 | 0.08 | 0.00 | 67 | 982.5 |
| 20260508152749 | 10 | 182 | 1.6 | 6.4 | 0.00 | 0.08 | 0.00 | 68 | 982.5 |
| 20260508152248 | 10 | 191 | 3.2 | 6.4 | 0.00 | 0.08 | 0.00 | 71 | 982.5 |
| 20260508151748 | 10 | 265 | 1.6 | 6.4 | 0.00 | 0.08 | 0.00 | 72 | 982.5 |
| 20260508151248 | 9 | 200 | 1.6 | 6.4 | 0.00 | 0.08 | 0.00 | 72 | 982.5 |
| 20260508150748 | 9 | 244 | 1.6 | 6.4 | 0.00 | 0.08 | 0.00 | 72 | 982.6 |
| 20260508150251 | 9 | 188 | 1.6 | 6.4 | 0.00 | 0.08 | 0.00 | 76 | 982.6 |
| 20260508150247 | 8 | 158 | 0.0 | 4.8 | 0.00 | 0.08 | 0.00 | 76 | 982.7 |
| 20260508145246 | 8 | 200 | 0.0 | 3.2 | 0.00 | 0.08 | 0.00 | 78 | 982.7 |
| 20260508144751 | 8 | 262 | 0.0 | 4.8 | 0.00 | 0.08 | 0.00 | 77 | 983.0 |
| 20260508144747 | 8 | 5 | 0.0 | 4.8 | 0.00 | 0.08 | 0.00 | 77 | 982.8 |
| 20260508144352 | 8 | 333 | 0.0 | 4.8 | 0.00 | 0.08 | 0.00 | 78 | 983.0 |
| 20260508143245 | 7 | 323 | 0.0 | 4.8 | 0.00 | 0.08 | 0.00 | 81 | 982.8 |
| 20260508142745 | 7 | 283 | 0.0 | 1.6 | 0.00 | 0.08 | 0.00 | 83 | 982.8 |
| 20260508142249 | 6 | 317 | 0.0 | 3.2 | 0.00 | 0.08 | 0.00 | 83 | 983.0 |
| 20260508142245 | 7 | 192 | 0.0 | 3.2 | 0.00 | 0.08 | 0.00 | 82 | 983.0 |
| 20260508141245 | 6 | 217 | 0.0 | 1.6 | 0.00 | 0.08 | 0.00 | 84 | 983.0 |
| 20260508140744 | 6 | 229 | 0.0 | 1.6 | 0.00 | 0.08 | 0.00 | 84 | 983.0 |
| 20260508140244 | 6 | 323 | 0.0 | 1.6 | 0.00 | 0.08 | 0.00 | 85 | 983.0 |
| 20260508135745 | 6 | 342 | 0.0 | 1.6 | 0.00 | 0.08 | 0.00 | 86 | 983.0 |
| 20260508135246 | 5 | 205 | 0.0 | 3.2 | 0.00 | 0.08 | 0.00 | 86 | 983.0 |
| 20260508135242 | 6 | 291 | 0.0 | 1.6 | 0.00 | 0.08 | 0.00 | 86 | 983.0 |
| 20260508134244 | 5 | 0 | 0.0 | 3.2 | 0.00 | 0.08 | 0.00 | 86 | 982.8 |
| 20260508134240 | 5 | 347 | 0.0 | 3.2 | 0.00 | 0.08 | 0.00 | 87 | 983.0 |
| 20260508133240 | 5 | 308 | 0.0 | 3.2 | 0.00 | 0.08 | 0.00 | 87 | 982.8 |
| 20260508132740 | 5 | 1 | 0.0 | 1.6 | 0.00 | 0.08 | 0.00 | 87 | 983.0 |
| 20260508132241 | 5 | 340 | 0.0 | 4.8 | 0.00 | 0.08 | 0.00 | 88 | 982.8 |
| 20260508131740 | 5 | 359 | 0.0 | 6.4 | 0.00 | 0.08 | 0.00 | 88 | 982.8 |
| 20260508131347 | 3 | 319 | 0.0 | 3.2 | 0.00 | 0.08 | 0.00 | 88 | 982.5 |
| 20260508131244 | 4 | 335 | 0.0 | 4.8 | 0.00 | 0.08 | 0.00 | 88 | 982.6 |
| 20260508131240 | 4 | 296 | 0.0 | 6.4 | 0.00 | 0.08 | 0.00 | 88 | 982.7 |
| 20260508125744 | 3 | 148 | 0.0 | 0.0 | 0.00 | 0.08 | 0.00 | 89 | 982.2 |
| 20260508125740 | 3 | 13 | 0.0 | 3.2 | 0.00 | 0.08 | 0.00 | 89 | 982.4 |
| 20260508124738 | 2 | 148 | 0.0 | 0.0 | 0.00 | 0.08 | 0.00 | 88 | 981.9 |
| 20260508124238 | 2 | 148 | 0.0 | 0.0 | 0.00 | 0.08 | 0.00 | 89 | 981.5 |
| 20260508123738 | 2 | 206 | 0.0 | 0.0 | 0.00 | 0.08 | 0.00 | 87 | 981.7 |
| 20260508123238 | 2 | 206 | 0.0 | 0.0 | 0.00 | 0.08 | 0.00 | 87 | 981.5 |
| 20260508122738 | 2 | 206 | 0.0 | 0.0 | 0.00 | 0.08 | 0.00 | 86 | 981.5 |
| 20260508122240 | 2 | 206 | 0.0 | 0.0 | 0.00 | 0.08 | 0.00 | 86 | 981.2 |
| 20260508121738 | 2 | 207 | 0.0 | 0.0 | 0.00 | 0.08 | 0.00 | 86 | 981.2 |
| 20260508121238 | 3 | 207 | 0.0 | 0.0 | 0.00 | 0.08 | 0.00 | 87 | 981.1 |
| 20260508120742 | 2 | 207 | 0.0 | 0.0 | 0.00 | 0.08 | 0.00 | 86 | 980.9 |
| 20260508120738 | 2 | 207 | 0.0 | 0.0 | 0.00 | 0.08 | 0.00 | 87 | 980.9 |
| 20260508120237 | 2 | 206 | 0.0 | 0.0 | 0.00 | 0.08 | 0.00 | 85 | 980.7 |
| 20260508115236 | 3 | 199 | 0.0 | 1.6 | 0.00 | 0.08 | 0.00 | 85 | 980.7 |
| 20260508114735 | 3 | 330 | 0.0 | 1.6 | 0.00 | 0.08 | 0.00 | 85 | 980.6 |
| 20260508114241 | 3 | 351 | 0.0 | 4.8 | 0.00 | 0.08 | 0.00 | 83 | 980.6 |
| 20260508114236 | 3 | 205 | 1.6 | 12.9 | 0.00 | 0.08 | 0.00 | 84 | 980.6 |
| 20260508113736 | 3 | 348 | 1.6 | 12.9 | 0.00 | 0.08 | 0.00 | 82 | 980.5 |
| 20260508112736 | 3 | 168 | 0.0 | 3.2 | 0.00 | 0.08 | 0.00 | 84 | 980.1 |
| 20260508112236 | 3 | 219 | 0.0 | 1.6 | 0.00 | 0.08 | 0.00 | 85 | 980.1 |
| 20260508111736 | 3 | 213 | 0.0 | 0.0 | 0.00 | 0.08 | 0.00 | 83 | 980.1 |
| 20260508111235 | 3 | 274 | 0.0 | 1.6 | 0.00 | 0.08 | 0.00 | 83 | 980.1 |
| 20260508110734 | 3 | 274 | 0.0 | 3.2 | 0.00 | 0.08 | 0.00 | 83 | 980.2 |
| 20260508110234 | 3 | 213 | 0.0 | 3.2 | 0.00 | 0.08 | 0.00 | 86 | 980.2 |
| 20260508105735 | 3 | 259 | 0.0 | 1.6 | 0.00 | 0.08 | 0.00 | 88 | 980.2 |
| 20260508105234 | 2 | 197 | 0.0 | 0.0 | 0.00 | 0.08 | 0.00 | 85 | 980.4 |
| 20260508104738 | 2 | 188 | 0.0 | 0.0 | 0.00 | 0.08 | 0.00 | 85 | 980.1 |
| 20260508104734 | 2 | 197 | 0.0 | 0.0 | 0.00 | 0.08 | 0.00 | 84 | 980.2 |
| 20260508103734 | 2 | 188 | 0.0 | 0.0 | 0.00 | 0.08 | 0.00 | 84 | 980.1 |
| 20260508103233 | 3 | 188 | 0.0 | 0.0 | 0.00 | 0.08 | 0.00 | 84 | 980.1 |
| 20260508102734 | 3 | 219 | 0.0 | 0.0 | 0.00 | 0.08 | 0.00 | 83 | 980.2 |
| 20260508102234 | 3 | 219 | 0.0 | 0.0 | 0.00 | 0.08 | 0.00 | 83 | 980.0 |
| 20260508101732 | 3 | 219 | 0.0 | 0.0 | 0.00 | 0.08 | 0.00 | 83 | 980.1 |
| 20260508101231 | 3 | 219 | 0.0 | 0.0 | 0.00 | 0.08 | 0.00 | 83 | 980.1 |
| 20260508100731 | 3 | 219 | 0.0 | 0.0 | 0.00 | 0.08 | 0.00 | 84 | 980.0 |
| 20260508100236 | 3 | 208 | 0.0 | 0.0 | 0.00 | 0.08 | 0.00 | 84 | 980.0 |
| 20260508100232 | 3 | 219 | 0.0 | 0.0 | 0.00 | 0.08 | 0.00 | 85 | 980.0 |
| 20260508095232 | 3 | 3 | 0.0 | 0.0 | 0.00 | 0.08 | 0.00 | 84 | 979.9 |
| 20260508094732 | 3 | 3 | 0.0 | 0.0 | 0.00 | 0.08 | 0.00 | 83 | 979.8 |
| 20260508094229 | 3 | 3 | 0.0 | 0.0 | 0.00 | 0.08 | 0.00 | 84 | 979.8 |
| 20260508093731 | 3 | 3 | 0.0 | 0.0 | 0.00 | 0.08 | 0.00 | 83 | 979.8 |
| 20260508093230 | 3 | 3 | 0.0 | 0.0 | 0.00 | 0.08 | 0.00 | 83 | 979.8 |
| 20260508092729 | 3 | 3 | 0.0 | 0.0 | 0.00 | 0.08 | 0.00 | 82 | 979.9 |
| 20260508092227 | 3 | 3 | 0.0 | 0.0 | 0.00 | 0.08 | 0.00 | 82 | 979.9 |
| 20260508091727 | 3 | 3 | 0.0 | 0.0 | 0.00 | 0.08 | 0.00 | 82 | 979.9 |
| 20260508091227 | 4 | 3 | 0.0 | 0.0 | 0.00 | 0.08 | 0.00 | 81 | 980.0 |
| 20260508090727 | 4 | 3 | 0.0 | 0.0 | 0.00 | 0.08 | 0.00 | 80 | 980.0 |
| 20260508090227 | 4 | 3 | 0.0 | 0.0 | 0.00 | 0.08 | 0.00 | 79 | 980.0 |
| 20260508085728 | 5 | 3 | 0.0 | 1.6 | 0.00 | 0.08 | 0.00 | 79 | 980.0 |
| 20260508085228 | 5 | 3 | 0.0 | 1.6 | 0.00 | 0.08 | 0.00 | 79 | 980.1 |
| 20260508084726 | 5 | 156 | 0.0 | 0.0 | 0.00 | 0.08 | 0.00 | 79 | 979.9 |
| 20260508084225 | 5 | 157 | 0.0 | 0.0 | 0.00 | 0.08 | 0.00 | 79 | 979.9 |
| 20260508083726 | 5 | 157 | 0.0 | 0.0 | 0.00 | 0.08 | 0.00 | 78 | 980.0 |
| 20260508083225 | 5 | 156 | 0.0 | 0.0 | 0.00 | 0.08 | 0.00 | 78 | 980.0 |
| 20260508082724 | 5 | 157 | 0.0 | 0.0 | 0.00 | 0.08 | 0.00 | 77 | 980.1 |
| 20260508082223 | 5 | 157 | 0.0 | 0.0 | 0.00 | 0.08 | 0.00 | 78 | 980.1 |
| 20260508081723 | 5 | 157 | 0.0 | 0.0 | 0.00 | 0.08 | 0.00 | 78 | 980.2 |
| 20260508081223 | 5 | 156 | 0.0 | 0.0 | 0.00 | 0.08 | 0.00 | 77 | 980.4 |
| 20260508080729 | 6 | 156 | 0.0 | 1.6 | 0.00 | 0.08 | 0.00 | 74 | 980.5 |
| 20260508080725 | 5 | 157 | 0.0 | 1.6 | 0.00 | 0.08 | 0.00 | 76 | 980.5 |
| 20260508075723 | 6 | 135 | 0.0 | 1.6 | 0.00 | 0.08 | 0.00 | 74 | 980.6 |
| 20260508075224 | 7 | 199 | 0.0 | 1.6 | 0.00 | 0.08 | 0.00 | 73 | 980.7 |
| 20260508074724 | 6 | 219 | 0.0 | 1.6 | 0.00 | 0.08 | 0.00 | 73 | 980.8 |
| 20260508074226 | 6 | 170 | 0.0 | 1.6 | 0.00 | 0.08 | 0.00 | 75 | 980.9 |
| 20260508074222 | 6 | 178 | 0.0 | 0.0 | 0.00 | 0.08 | 0.00 | 75 | 981.1 |
| 20260508073721 | 6 | 170 | 0.0 | 0.0 | 0.00 | 0.08 | 0.00 | 76 | 980.9 |
| 20260508072721 | 6 | 170 | 0.0 | 3.2 | 0.00 | 0.08 | 0.00 | 75 | 980.8 |
| 20260508072222 | 6 | 220 | 0.0 | 3.2 | 0.00 | 0.08 | 0.00 | 74 | 980.8 |
| 20260508071722 | 6 | 129 | 0.0 | 1.6 | 0.00 | 0.08 | 0.00 | 74 | 980.7 |
| 20260508071221 | 6 | 165 | 0.0 | 0.0 | 0.00 | 0.08 | 0.00 | 73 | 981.1 |
| 20260508070721 | 6 | 165 | 0.0 | 1.6 | 0.00 | 0.08 | 0.00 | 72 | 980.9 |
| 20260508070221 | 6 | 165 | 0.0 | 1.6 | 0.00 | 0.08 | 0.00 | 72 | 980.8 |
| 20260508065721 | 7 | 346 | 0.0 | 1.6 | 0.00 | 0.08 | 0.00 | 70 | 980.9 |
| 20260508065221 | 7 | 346 | 0.0 | 1.6 | 0.00 | 0.08 | 0.00 | 70 | 981.2 |
| 20260508064721 | 7 | 332 | 0.0 | 1.6 | 0.00 | 0.08 | 0.00 | 70 | 980.9 |
| 20260508064226 | 7 | 212 | 0.0 | 0.0 | 0.00 | 0.08 | 0.00 | 69 | 980.7 |
| 20260508064222 | 7 | 208 | 0.0 | 0.0 | 0.00 | 0.08 | 0.00 | 70 | 980.7 |
| 20260508063221 | 7 | 158 | 0.0 | 0.0 | 0.00 | 0.08 | 0.00 | 68 | 980.7 |
| 20260508062721 | 7 | 162 | 0.0 | 0.0 | 0.00 | 0.08 | 0.00 | 66 | 980.7 |
| 20260508062221 | 8 | 162 | 0.0 | 0.0 | 0.00 | 0.08 | 0.00 | 65 | 980.7 |
| 20260508061719 | 8 | 162 | 0.0 | 0.0 | 0.00 | 0.08 | 0.00 | 64 | 980.7 |
| 20260508061218 | 8 | 162 | 0.0 | 0.0 | 0.00 | 0.08 | 0.00 | 64 | 980.7 |
| 20260508060717 | 8 | 302 | 0.0 | 1.6 | 0.00 | 0.08 | 0.00 | 64 | 980.8 |
| 20260508060217 | 8 | 266 | 0.0 | 1.6 | 0.00 | 0.08 | 0.00 | 64 | 980.7 |
| 20260508055717 | 8 | 150 | 0.0 | 1.6 | 0.00 | 0.08 | 0.08 | 63 | 980.5 |
| 20260508055223 | 8 | 150 | 0.0 | 4.8 | 0.00 | 0.08 | 0.08 | 64 | 980.4 |
| 20260508054714 | 8 | 197 | 0.0 | 4.8 | 0.00 | 0.08 | 0.08 | 63 | 980.2 |
| 20260508054214 | 8 | 159 | 0.0 | 1.6 | 0.00 | 0.08 | 0.08 | 63 | 980.4 |
| 20260508053714 | 8 | 159 | 0.0 | 1.6 | 0.00 | 0.08 | 0.08 | 62 | 980.2 |
| 20260508053214 | 8 | 345 | 0.0 | 1.6 | 0.00 | 0.08 | 0.08 | 61 | 980.5 |
| 20260508052712 | 8 | 345 | 0.0 | 1.6 | 0.00 | 0.08 | 0.08 | 61 | 980.6 |
| 20260508052211 | 8 | 274 | 0.0 | 0.0 | 0.00 | 0.08 | 0.08 | 62 | 980.5 |
| 20260508051710 | 9 | 172 | 0.0 | 0.0 | 0.00 | 0.08 | 0.08 | 60 | 980.4 |
| 20260508051210 | 9 | 172 | 0.0 | 0.0 | 0.00 | 0.08 | 0.08 | 58 | 980.2 |
| 20260508050714 | 9 | 172 | 0.0 | 0.0 | 0.00 | 0.08 | 0.08 | 58 | 980.1 |
| 20260508050710 | 9 | 172 | 0.0 | 0.0 | 0.00 | 0.08 | 0.08 | 58 | 980.0 |
| 20260508045711 | 10 | 170 | 0.0 | 0.0 | 0.00 | 0.08 | 0.08 | 58 | 980.1 |
| 20260508045210 | 9 | 173 | 0.0 | 0.0 | 0.00 | 0.08 | 0.08 | 57 | 980.1 |
| 20260508044710 | 10 | 168 | 0.0 | 0.0 | 0.00 | 0.08 | 0.08 | 58 | 980.0 |
| 20260508044214 | 10 | 168 | 0.0 | 0.0 | 0.00 | 0.08 | 0.08 | 55 | 980.1 |
| 20260508044210 | 10 | 169 | 0.0 | 0.0 | 0.00 | 0.08 | 0.08 | 58 | 980.1 |
| 20260508043210 | 10 | 168 | 0.0 | 1.6 | 0.00 | 0.08 | 0.08 | 53 | 980.0 |
| 20260508042713 | 11 | 174 | 0.0 | 1.6 | 0.00 | 0.08 | 0.08 | 55 | 980.1 |
| 20260508042709 | 10 | 179 | 0.0 | 1.6 | 0.00 | 0.08 | 0.08 | 54 | 980.1 |
| 20260508041708 | 11 | 218 | 0.0 | 0.0 | 0.00 | 0.08 | 0.08 | 53 | 980.1 |
| 20260508041208 | 11 | 218 | 0.0 | 0.0 | 0.00 | 0.08 | 0.08 | 50 | 980.1 |
| 20260508040708 | 11 | 218 | 0.0 | 0.0 | 0.00 | 0.08 | 0.08 | 49 | 980.1 |
| 20260508040212 | 12 | 202 | 0.0 | 0.0 | 0.00 | 0.08 | 0.08 | 50 | 980.1 |
| 20260508040208 | 12 | 207 | 0.0 | 0.0 | 0.00 | 0.08 | 0.08 | 49 | 980.1 |
| 20260508035208 | 12 | 206 | 0.0 | 1.6 | 0.00 | 0.08 | 0.08 | 47 | 980.2 |
| 20260508034709 | 12 | 192 | 0.0 | 1.6 | 0.00 | 0.08 | 0.08 | 48 | 980.1 |
| 20260508034208 | 12 | 206 | 0.0 | 1.6 | 0.00 | 0.08 | 0.08 | 46 | 980.2 |
| 20260508033706 | 12 | 212 | 0.0 | 1.6 | 0.00 | 0.08 | 0.08 | 45 | 980.1 |
| 20260508033211 | 13 | 263 | 3.2 | 9.7 | 0.00 | 0.08 | 0.08 | 43 | 980.1 |
| 20260508033206 | 13 | 121 | 1.6 | 9.7 | 0.00 | 0.08 | 0.08 | 44 | 979.9 |
| 20260508032206 | 13 | 2 | 4.8 | 12.9 | 0.00 | 0.08 | 0.08 | 43 | 980.1 |
| 20260508031706 | 13 | 11 | 4.8 | 12.9 | 0.00 | 0.08 | 0.08 | 41 | 980.2 |
| 20260508031206 | 13 | 345 | 3.2 | 12.9 | 0.00 | 0.08 | 0.08 | 39 | 980.4 |
| 20260508030706 | 13 | 328 | 1.6 | 8.0 | 0.00 | 0.08 | 0.08 | 38 | 980.1 |
| 20260508030206 | 14 | 347 | 0.0 | 8.0 | 0.00 | 0.08 | 0.08 | 37 | 979.9 |
| 20260508025706 | 14 | 344 | 0.0 | 1.6 | 0.00 | 0.08 | 0.08 | 37 | 979.6 |
| 20260508025205 | 14 | 20 | 0.0 | 4.8 | 0.00 | 0.08 | 0.08 | 37 | 979.6 |
| 20260508024704 | 14 | 307 | 0.0 | 4.8 | 0.00 | 0.08 | 0.08 | 37 | 979.5 |
| 20260508024210 | 14 | 321 | 0.0 | 3.2 | 0.00 | 0.08 | 0.08 | 35 | 979.4 |
| 20260508024204 | 14 | 321 | 0.0 | 3.2 | 0.00 | 0.08 | 0.08 | 35 | 979.4 |
| 20260508023811 | 14 | 330 | 0.0 | 4.8 | 0.00 | 0.08 | 0.08 | 36 | 979.2 |
| 20260508022704 | 14 | 323 | 0.0 | 4.8 | 0.00 | 0.08 | 0.08 | 36 | 979.2 |
| 20260508022202 | 15 | 309 | 0.0 | 3.2 | 0.00 | 0.08 | 0.08 | 35 | 979.2 |
| 20260508021702 | 15 | 329 | 0.0 | 6.4 | 0.00 | 0.08 | 0.08 | 34 | 979.1 |
| 20260508021202 | 14 | 307 | 0.0 | 6.4 | 0.00 | 0.08 | 0.08 | 34 | 979.1 |
| 20260508020711 | 15 | 291 | 0.0 | 0.0 | 0.00 | 0.08 | 0.08 | 35 | 978.9 |
| 20260508020702 | 14 | 334 | 0.0 | 1.6 | 0.00 | 0.08 | 0.08 | 35 | 978.9 |
| 20260508015704 | 15 | 214 | 0.0 | 0.0 | 0.00 | 0.08 | 0.08 | 35 | 978.7 |
| 20260508015700 | 15 | 274 | 0.0 | 0.0 | 0.00 | 0.08 | 0.08 | 35 | 978.8 |
| 20260508014700 | 15 | 314 | 0.0 | 0.0 | 0.00 | 0.08 | 0.08 | 35 | 978.7 |
| 20260508014204 | 15 | 314 | 0.0 | 1.6 | 0.00 | 0.08 | 0.08 | 34 | 978.5 |
| 20260508014159 | 15 | 314 | 0.0 | 1.6 | 0.00 | 0.08 | 0.08 | 34 | 978.5 |
| 20260508013806 | 15 | 253 | 0.0 | 1.6 | 0.00 | 0.08 | 0.08 | 33 | 978.5 |
| 20260508012700 | 15 | 12 | 0.0 | 3.2 | 0.00 | 0.08 | 0.08 | 33 | 978.5 |
| 20260508012201 | 16 | 12 | 0.0 | 3.2 | 0.00 | 0.08 | 0.08 | 32 | 978.5 |
| 20260508011659 | 16 | 321 | 0.0 | 1.6 | 0.00 | 0.08 | 0.08 | 30 | 978.5 |
| 20260508011157 | 16 | 301 | 0.0 | 3.2 | 0.00 | 0.08 | 0.08 | 30 | 978.3 |
| 20260508010656 | 16 | 219 | 0.0 | 9.7 | 0.00 | 0.08 | 0.08 | 32 | 978.3 |
| 20260508010202 | 17 | 319 | 0.0 | 3.2 | 0.00 | 0.10 | 0.08 | 28 | 978.3 |
| 20260508010156 | 16 | 324 | 0.0 | 9.7 | 0.00 | 0.08 | 0.08 | 29 | 978.3 |
| 20260508005656 | 16 | 290 | 0.0 | 3.2 | 0.00 | 0.08 | 0.08 | 29 | 978.3 |
| 20260508004655 | 16 | 255 | 0.0 | 3.2 | 0.00 | 0.10 | 0.08 | 28 | 978.3 |
| 20260508004156 | 16 | 255 | 0.0 | 3.2 | 0.00 | 0.10 | 0.08 | 29 | 978.2 |
| 20260508003656 | 16 | 8 | 0.0 | 1.6 | 0.00 | 0.10 | 0.08 | 29 | 978.2 |
| 20260508003156 | 16 | 280 | 0.0 | 1.6 | 0.00 | 0.13 | 0.08 | 28 | 978.2 |
| 20260508002656 | 16 | 277 | 0.0 | 1.6 | 0.00 | 0.13 | 0.08 | 28 | 978.2 |
| 20260508002200 | 16 | 8 | 1.6 | 8.0 | 0.00 | 0.15 | 0.08 | 28 | 978.2 |
| 20260508002156 | 16 | 343 | 0.0 | 4.8 | 0.00 | 0.13 | 0.08 | 27 | 978.3 |
| 20260508001155 | 16 | 338 | 1.6 | 8.0 | 0.00 | 0.15 | 0.08 | 28 | 978.2 |
| 20260508000656 | 17 | 330 | 3.2 | 12.9 | 0.00 | 0.15 | 0.08 | 27 | 978.3 |
| 20260508000155 | 17 | 320 | 4.8 | 12.9 | 0.00 | 0.18 | 0.08 | 28 | 978.3 |
| 20260507235655 | 17 | 321 | 3.2 | 9.7 | 0.00 | 0.18 | 0.08 | 27 | 978.3 |
| 20260507235155 | 17 | 328 | 3.2 | 9.7 | 0.00 | 0.18 | 0.08 | 29 | 978.3 |
| 20260507234656 | 17 | 305 | 3.2 | 11.3 | 0.00 | 0.20 | 0.08 | 26 | 978.3 |
| 20260507234155 | 18 | 311 | 3.2 | 11.3 | 0.00 | 0.23 | 0.08 | 27 | 978.2 |
| 20260507233656 | 17 | 340 | 3.2 | 11.3 | 0.00 | 0.23 | 0.08 | 27 | 978.3 |
| 20260507233155 | 18 | 343 | 3.2 | 9.7 | 0.00 | 0.25 | 0.08 | 26 | 978.5 |
| 20260507232655 | 18 | 321 | 3.2 | 11.3 | 0.00 | 0.28 | 0.08 | 27 | 978.5 |
| 20260507232156 | 18 | 224 | 3.2 | 14.5 | 0.00 | 0.28 | 0.08 | 28 | 978.5 |
| 20260507231655 | 18 | 328 | 3.2 | 14.5 | 0.00 | 0.30 | 0.08 | 28 | 978.5 |
| 20260507231159 | 18 | 309 | 1.6 | 9.7 | 0.00 | 0.33 | 0.08 | 28 | 978.6 |
| 20260507231155 | 18 | 7 | 1.6 | 11.3 | 0.00 | 0.30 | 0.08 | 27 | 978.5 |
| 20260507230156 | 18 | 318 | 1.6 | 9.7 | 0.00 | 0.36 | 0.08 | 29 | 978.6 |
| 20260507225700 | 18 | 314 | 1.6 | 11.3 | 0.00 | 0.38 | 0.08 | 29 | 978.5 |
| 20260507225656 | 18 | 326 | 1.6 | 9.7 | 0.00 | 0.36 | 0.08 | 27 | 978.6 |
| 20260507224659 | 17 | 11 | 3.2 | 12.9 | 0.00 | 0.38 | 0.08 | 28 | 978.6 |
| 20260507224655 | 17 | 345 | 3.2 | 12.9 | 0.00 | 0.38 | 0.08 | 31 | 978.5 |
| 20260507223655 | 17 | 339 | 4.8 | 14.5 | 0.00 | 0.41 | 0.08 | 29 | 978.6 |
| 20260507223153 | 17 | 299 | 6.4 | 14.5 | 0.00 | 0.43 | 0.08 | 27 | 978.6 |
| 20260507222654 | 18 | 340 | 4.8 | 14.5 | 0.00 | 0.43 | 0.08 | 28 | 978.6 |
| 20260507222153 | 18 | 309 | 3.2 | 12.9 | 0.00 | 0.46 | 0.08 | 27 | 978.6 |
| 20260507221653 | 18 | 305 | 4.8 | 16.1 | 0.00 | 0.46 | 0.08 | 26 | 978.7 |
| 20260507221153 | 18 | 48 | 4.8 | 16.1 | 0.00 | 0.48 | 0.08 | 28 | 978.8 |
| 20260507220658 | 18 | 341 | 6.4 | 20.9 | 0.00 | 0.53 | 0.08 | 29 | 979.1 |
| 20260507220654 | 18 | 296 | 4.8 | 14.5 | 0.00 | 0.51 | 0.08 | 26 | 978.8 |
| 20260507220152 | 18 | 88 | 4.8 | 14.5 | 0.00 | 0.53 | 0.08 | 27 | 979.1 |
| 20260507215153 | 18 | 195 | 4.8 | 20.9 | 0.00 | 0.56 | 0.08 | 27 | 979.2 |
| 20260507214653 | 18 | 224 | 4.8 | 17.7 | 0.00 | 0.56 | 0.08 | 27 | 979.2 |
| 20260507214156 | 17 | 11 | 6.4 | 17.7 | 0.00 | 0.58 | 0.08 | 30 | 979.3 |
| 20260507214152 | 18 | 342 | 6.4 | 17.7 | 0.00 | 0.58 | 0.08 | 30 | 979.2 |
| 20260507213151 | 18 | 326 | 4.8 | 12.9 | 0.00 | 0.61 | 0.08 | 31 | 979.3 |
| 20260507212651 | 17 | 315 | 6.4 | 14.5 | 0.00 | 0.61 | 0.08 | 29 | 979.3 |
| 20260507212151 | 17 | 355 | 8.0 | 19.3 | 0.00 | 0.64 | 0.08 | 31 | 979.3 |
| 20260507211649 | 17 | 333 | 8.0 | 19.3 | 0.00 | 0.64 | 0.08 | 31 | 979.4 |
| 20260507211147 | 17 | 334 | 8.0 | 19.3 | 0.00 | 0.66 | 0.08 | 33 | 979.4 |
| 20260507210647 | 17 | 338 | 8.0 | 19.3 | 0.00 | 0.69 | 0.08 | 34 | 979.5 |
| 20260507210147 | 17 | 337 | 9.7 | 19.3 | 0.00 | 0.69 | 0.08 | 36 | 979.5 |
| 20260507205645 | 17 | 15 | 9.7 | 24.1 | 0.00 | 0.71 | 0.08 | 33 | 979.6 |
| 20260507205145 | 17 | 349 | 8.0 | 24.1 | 0.00 | 0.71 | 0.08 | 33 | 979.6 |
| 20260507204643 | 17 | 333 | 8.0 | 16.1 | 0.00 | 0.71 | 0.08 | 34 | 979.5 |
| 20260507204143 | 17 | 322 | 8.0 | 25.7 | 0.00 | 0.74 | 0.08 | 34 | 979.6 |
| 20260507203644 | 17 | 335 | 8.0 | 25.7 | 0.00 | 0.74 | 0.08 | 32 | 979.8 |
| 20260507203147 | 16 | 14 | 8.0 | 17.7 | 0.00 | 0.76 | 0.08 | 32 | 979.9 |
| 20260507203143 | 16 | 26 | 8.0 | 17.7 | 0.00 | 0.76 | 0.08 | 34 | 979.6 |
| 20260507202141 | 16 | 315 | 6.4 | 17.7 | 0.00 | 0.76 | 0.08 | 32 | 980.0 |
| 20260507201641 | 16 | 315 | 4.8 | 12.9 | 0.00 | 0.76 | 0.08 | 34 | 980.0 |
| 20260507201141 | 16 | 325 | 4.8 | 12.9 | 0.00 | 0.79 | 0.08 | 34 | 980.0 |
| 20260507200642 | 16 | 20 | 3.2 | 12.9 | 0.00 | 0.79 | 0.08 | 32 | 980.1 |
| 20260507200142 | 16 | 240 | 3.2 | 14.5 | 0.00 | 0.81 | 0.08 | 37 | 980.2 |
| 20260507195648 | 16 | 273 | 4.8 | 17.7 | 0.00 | 0.81 | 0.08 | 34 | 980.2 |
| 20260507195141 | 15 | 301 | 4.8 | 17.7 | 0.00 | 0.81 | 0.08 | 33 | 980.4 |
| 20260507194646 | 16 | 299 | 3.2 | 17.7 | 0.00 | 0.84 | 0.08 | 34 | 980.4 |
| 20260507194145 | 16 | 219 | 3.2 | 14.5 | 0.00 | 0.84 | 0.08 | 35 | 980.4 |
| 20260507194141 | 16 | 308 | 3.2 | 14.5 | 0.00 | 0.84 | 0.08 | 34 | 980.4 |
| 20260507193139 | 16 | 312 | 3.2 | 11.3 | 0.00 | 0.84 | 0.08 | 38 | 980.4 |
| 20260507192639 | 16 | 281 | 1.6 | 11.3 | 0.00 | 0.86 | 0.08 | 35 | 980.4 |
| 20260507192139 | 16 | 243 | 1.6 | 9.7 | 0.00 | 0.86 | 0.08 | 33 | 980.5 |
| 20260507191639 | 16 | 188 | 3.2 | 11.3 | 0.00 | 0.86 | 0.08 | 35 | 980.5 |
| 20260507191143 | 16 | 248 | 3.2 | 9.7 | 0.00 | 0.89 | 0.08 | 37 | 980.6 |
| 20260507191139 | 16 | 295 | 3.2 | 11.3 | 0.00 | 0.86 | 0.08 | 34 | 980.5 |
| 20260507190139 | 15 | 321 | 3.2 | 9.7 | 0.00 | 0.89 | 0.08 | 38 | 980.6 |
| 20260507185639 | 15 | 210 | 1.6 | 11.3 | 0.00 | 0.89 | 0.08 | 34 | 980.7 |
| 20260507185142 | 15 | 304 | 1.6 | 8.0 | 0.00 | 0.91 | 0.08 | 37 | 980.9 |
| 20260507185137 | 15 | 304 | 1.6 | 11.3 | 0.00 | 0.91 | 0.08 | 34 | 980.8 |
| 20260507184137 | 15 | 181 | 3.2 | 14.5 | 0.00 | 0.91 | 0.08 | 39 | 981.1 |
| 20260507183635 | 15 | 198 | 3.2 | 14.5 | 0.00 | 0.91 | 0.08 | 37 | 980.9 |
| 20260507183135 | 14 | 304 | 3.2 | 11.3 | 0.00 | 0.91 | 0.08 | 38 | 981.1 |